Vorticity
nan nan nan nan nan nan nan nan nan nan nan nan nan nan nan nan nan nan nan nan nan nan nan nan nan nan nan nan nan nan nan nan
nan 5 4 4 6 5 4 5 5 4 4 5 4 4 4 4 4 3 4 3 3 4 4 5 6 5 6 5 5 10 10 nan
nan 7 5 5 7 7 6 4 4 4 4 4 2 4 6 7 6 4 3 4 4 4 4 4 6 8 10 10 11 9 8 nan
nan 8 8 6 6 6 5 5 5 6 6 7 7 8 8 8 9 7 6 6 8 7 7 7 7 9 8 12 12 7 9 nan
nan 7 8 7 6 5 7 7 8 10 9 6 7 7 9 9 9 8 10 9 9 9 10 10 8 5 6 6 5 8 8 nan
nan 7 5 6 8 8 9 9 9 8 10 7 6 7 7 9 10 9 7 10 8 8 8 8 8 7 7 6 6 6 6 nan
nan 5 5 6 6 9 8 9 9 9 7 7 6 7 7 6 6 7 8 9 10 9 7 7 8 8 8 8 7 7 6 nan
nan 11 7 6 5 8 7 7 7 9 9 7 6 6 7 7 7 7 8 8 8 8 8 8 8 9 8 8 8 7 7 nan
nan 6 8 8 9 6 8 7 8 9 11 10 7 8 8 7 7 8 8 7 8 8 8 10 10 10 10 9 10 9 7 nan
nan 1 4 5 10 8 8 8 5 7 10 9 8 8 11 9 7 7 8 9 9 9 9 9 9 9 10 10 8 9 10 nan
nan 8 7 6 10 9 8 6 6 10 8 6 7 7 7 8 7 6 8 10 9 10 10 10 8 7 8 8 10 10 11 nan
nan 10 11 10 5 4 7 8 8 8 7 7 8 8 6 7 6 8 9 9 8 9 9 9 8 6 9 11 11 9 10 nan
nan 9 13 11 8 7 8 8 6 6 7 8 8 5 3 7 10 9 10 9 9 9 7 7 9 10 7 10 12 8 9 nan
nan 5 11 11 10 9 9 8 9 6 4 3 4 7 9 9 11 11 9 7 8 9 10 11 8 8 10 9 8 9 9 nan
nan 8 7 9 10 9 9 9 8 7 7 7 6 8 11 11 10 9 9 9 9 9 8 10 11 8 11 12 9 11 9 nan
nan 7 7 6 9 10 11 9 8 9 8 7 8 9 9 8 8 8 10 8 8 10 10 11 11 11 10 9 11 9 7 nan
nan 7 7 7 6 6 5 7 8 8 9 9 7 7 7 8 8 7 9 9 8 10 10 12 12 10 8 9 10 9 8 nan
nan 8 8 10 6 6 8 8 9 12 10 6 7 8 6 6 9 11 9 9 11 10 10 10 10 9 8 8 8 8 7 nan
nan 5 8 12 12 10 10 12 11 8 7 6 7 9 7 9 10 11 11 9 9 9 8 7 9 7 7 9 8 8 8 nan
nan nan nan nan nan nan nan nan nan nan nan nan nan nan nan nan nan nan nan nan nan nan nan nan nan nan nan nan nan nan nan nan
CAPE
888 971 933 807 846 869 908 963 940 913 914 916 791 576 387 281 145 17 0 0 0 0 0 0 0 0 17 44 11 30 0 0
486 436 398 370 566 655 698 749 678 575 615 659 555 444 209 225 119 46 0 0 0 0 0 0 0 0 0 0 0 20 0 0
266 217 156 187 293 619 666 733 642 503 550 480 401 352 214 102 84 63 75 23 7 0 0 0 0 0 0 0 0 0 0 0
205 107 479 124 241 309 304 500 517 507 522 367 259 381 312 98 72 155 172 124 170 108 63 0 0 0 0 0 0 0 0 0
347 150 34 38 176 139 377 331 395 426 443 257 356 143 197 114 149 212 88 146 98 95 27 0 0 0 0 0 0 0 0 0
475 484 222 61 0 0 0 89 113 450 605 408 321 127 15 13 0 0 8 55 85 55 1 0 0 0 0 0 0 0 0 0
583 527 411 241 107 64 50 103 55 65 228 209 96 69 26 13 15 0 0 0 0 0 0 0 0 0 0 0 0 0 0 0
509 439 643 481 79 254 299 59 57 167 8 16 53 12 54 37 11 20 0 0 0 0 0 0 0 0 0 0 0 0 0 0
360 679 718 24 117 169 361 0 0 0 0 0 0 7 19 17 7 11 13 17 41 3 5 0 0 0 0 0 0 0 0 0
397 241 571 96 15 27 13 1 0 5 0 0 0 0 0 0 0 0 6 25 16 0 1 15 5 0 0 3 0 0 0 0
101 0 139 60 0 1 3 0 0 0 0 0 0 0 0 0 0 0 0 0 0 0 1 2 5 0 0 7 3 0 0 0
36 26 49 0 0 0 0 0 0 0 0 0 0 0 0 0 0 0 0 0 0 0 0 0 0 0 26 14 31 43 20 0
0 0 0 0 0 0 0 0 0 0 0 0 0 0 0 0 0 0 0 0 0 0 0 0 0 0 0 0 0 0 0 0
0 0 0 0 0 0 0 0 0 0 0 0 0 0 0 0 0 0 0 0 0 0 0 0 0 0 0 0 0 0 0 0
0 0 0 0 0 0 0 0 0 0 0 0 0 0 0 0 0 0 0 0 0 0 0 0 0 0 0 0 0 0 0 0
0 0 0 0 0 0 0 0 0 0 0 0 0 0 0 0 0 0 0 0 0 0 0 0 0 0 0 0 0 0 0 0
0 0 0 0 0 0 0 0 0 0 0 0 0 0 0 0 0 0 0 0 0 0 0 0 0 0 0 0 0 0 0 0
0 0 0 0 0 0 0 0 0 0 0 0 0 0 0 0 0 0 0 0 0 0 0 0 0 2 16 0 13 1 0 0
0 0 0 0 0 0 0 0 0 0 0 0 0 0 0 0 0 0 0 0 0 0 0 0 0 0 0 0 0 0 0 0
0 0 0 0 0 0 0 0 0 0 0 0 0 0 0 0 0 0 0 0 0 0 0 0 0 0 0 0 0 0 0 0